Weather History for Perry, IA

Change the Weather History Date:

Wednesday, December 25, 2013

  Actual Average Record
Temperature  
Mean Temperature 23 °F -  
Max Temperature 34 °F 26 °F 52 °F (1954)
Min Temperature 12 °F 9 °F -20 °F (1983)
Degree Days  
Heating Degree Days 42    
Moisture  
Dew Point 19 °F    
Average Humidity 81    
Maximum Humidity 93    
Minimum Humidity 63    
Precipitation  
Precipitation 0.00 in - - ()
Sea Level Pressure  
Sea Level Pressure 30.19 in    
Wind  
Wind Speed 10 mph (West)    
Max Wind Speed 20 mph    
Max Gust Speed 25 mph    
Visibility 8 miles    
Events      
Averages and records for this station are not official NWS values.
T = Trace of Precipitation, MM = Missing Value Source: NWS Daily Summary

Daily Weather History Graph

Daily Weather History Graph

Search for Another Location

Airport:

Trip Planner

Search our weather history database for the weather conditions in past years. The results will help you decide how hot, cold, wet, or windy it might be!

Date:

Astronomy

Dec. 25, 2013 Rise Set
Actual Time 7:42 AM CST 4:51 PM CST
Civil Twilight 7:10 AM CST 5:22 PM CST
Nautical Twilight 6:35 AM CST 5:58 PM CST
Astronomical Twilight 6:01 AM CST 6:32 PM CST
Moon 12:06 AM CST (12/25) 12:00 PM CST (12/25)
Length of Visible Light 10h 11m
Length of Day
9h 08m
Waning Gibbous, 48% of the Moon is Illuminated
Dec 25
Waning Gibbous
Jan 1
New
Jan 7
First Quarter
Jan 15
Full
Jan 23
Last Quarter

Hourly Weather History & Observations

Time (CST) Temp. Windchill Dew Point Humidity Pressure Visibility Wind Dir Wind Speed Gust Speed Precip Events Conditions
12:15 AM 19.9 °F 13.4 °F 15.8 °F 84% 30.17 in 10.0 mi SW 4.6 mph - N/A   Overcast
12:35 AM 19.9 °F 14.9 °F 16.0 °F 85% 30.16 in 10.0 mi SSW 3.5 mph - N/A   Overcast
12:55 AM 21.2 °F 11.7 °F 18.1 °F 88% 30.17 in 7.0 mi WSW 8.1 mph - N/A   Overcast
1:15 AM 21.7 °F 12.3 °F 18.9 °F 89% 30.17 in 5.0 mi West 8.1 mph - N/A   Overcast
1:35 AM 22.1 °F 11.3 °F 19.4 °F 89% 30.17 in 5.0 mi West 10.4 mph - N/A   Overcast
1:55 AM 22.6 °F 11.9 °F 19.9 °F 89% 30.17 in 5.0 mi West 10.4 mph - N/A   Overcast
2:15 AM 23.0 °F 12.4 °F 20.1 °F 89% 30.17 in 5.0 mi West 10.4 mph - N/A   Overcast
2:35 AM 23.0 °F 13.1 °F 20.1 °F 89% 30.18 in 4.0 mi West 9.2 mph - N/A   Overcast
2:55 AM 23.0 °F 13.1 °F 20.1 °F 89% 30.18 in 5.0 mi West 9.2 mph - N/A   Overcast
3:15 AM 23.4 °F 12.2 °F 19.4 °F 85% 30.19 in 7.0 mi WNW 11.5 mph - N/A   Overcast
3:35 AM 23.0 °F 9.6 °F 18.5 °F 83% 30.18 in 10.0 mi WNW 16.1 mph - N/A   Overcast
3:55 AM 22.1 °F 8.9 °F 18.1 °F 85% 30.18 in 10.0 mi WNW 15.0 mph - N/A   Overcast
4:15 AM 21.6 °F 9.9 °F 17.6 °F 85% 30.18 in 10.0 mi NW 11.5 mph 19.6 mph N/A   Overcast
4:35 AM 21.4 °F 9.1 °F 17.6 °F 85% 30.19 in 7.0 mi WNW 12.7 mph 17.3 mph N/A   Overcast
4:55 AM 20.7 °F 8.2 °F 16.7 °F 85% 30.19 in 10.0 mi WNW 12.7 mph - N/A   Overcast
5:15 AM 20.3 °F 6.1 °F 16.7 °F 86% 30.20 in 10.0 mi WNW 16.1 mph - N/A   Overcast
5:35 AM 20.3 °F 5.2 °F 16.5 °F 85% 30.21 in 10.0 mi West 18.4 mph - N/A   Overcast
5:55 AM 19.9 °F 7.3 °F 15.8 °F 84% 30.20 in 10.0 mi West 12.7 mph - N/A   Overcast
6:15 AM 20.1 °F 8.8 °F 16.5 °F 86% 30.20 in 10.0 mi West 10.4 mph - N/A   Overcast
6:35 AM 20.3 °F 9.0 °F 16.7 °F 86% 30.20 in 10.0 mi WNW 10.4 mph - N/A   Overcast
6:55 AM 19.9 °F 12.1 °F 16.3 °F 86% 30.20 in 10.0 mi WSW 5.8 mph - N/A   Overcast
7:15 AM 19.9 °F 12.1 °F 16.5 °F 87% 30.18 in 10.0 mi SSW 5.8 mph - N/A   Overcast
7:35 AM 19.8 °F 10.8 °F 16.3 °F 87% 30.18 in 10.0 mi South 6.9 mph - N/A   Overcast
7:55 AM 20.1 °F 9.5 °F 17.1 °F 88% 30.17 in 7.0 mi SSW 9.2 mph - N/A   Overcast
8:15 AM 20.3 °F 9.8 °F 17.6 °F 89% 30.17 in 5.0 mi SSW 9.2 mph - N/A   Overcast
8:35 AM 20.7 °F 10.2 °F 18.3 °F 91% 30.17 in 4.0 mi SSW 9.2 mph - N/A   Overcast
8:55 AM 20.8 °F 9.7 °F 19.0 °F 93% 30.17 in 1.8 mi SSW 10.4 mph - N/A   Overcast
9:15 AM 21.2 °F 10.9 °F 19.6 °F 93% 30.18 in 1.0 mi SW 9.2 mph - N/A   Overcast
9:35 AM 22.6 °F 11.3 °F 20.8 °F 93% 30.17 in 3.0 mi SSW 11.5 mph - N/A   Overcast
9:55 AM 23.0 °F 12.4 °F 21.0 °F 92% 30.18 in 3.0 mi SW 10.4 mph - N/A   Overcast
10:15 AM 23.9 °F 12.9 °F 21.7 °F 91% 30.18 in 5.0 mi WSW 11.5 mph - N/A   Overcast
10:35 AM 25.0 °F 14.2 °F 22.3 °F 89% 30.17 in 5.0 mi SW 11.5 mph - N/A   Overcast
10:55 AM 26.1 °F 17.6 °F 23.0 °F 88% 30.18 in 5.0 mi WSW 8.1 mph - N/A   Overcast
11:15 AM 28.0 °F 20.0 °F 23.4 °F 83% 30.17 in 5.0 mi SW 8.1 mph - N/A   Haze
11:35 AM 28.9 °F 19.8 °F 23.9 °F 81% 30.16 in 5.0 mi SW 10.4 mph - N/A   Haze
11:55 AM 30.4 °F 22.2 °F 24.3 °F 78% 30.15 in 7.0 mi WSW 9.2 mph - N/A   Scattered Clouds
12:15 PM 32.0 °F 24.8 °F 25.5 °F 77% 30.15 in 7.0 mi West 8.1 mph - N/A   Mostly Cloudy
12:35 PM 32.9 °F 21.6 °F 26.1 °F 76% 30.14 in 10.0 mi WNW 18.4 mph 23.0 mph N/A   Overcast
12:55 PM 33.4 °F 22.0 °F 26.4 °F 75% 30.14 in 10.0 mi WNW 19.6 mph 25.3 mph N/A   Overcast
1:15 PM 34.2 °F 24.0 °F 27.1 °F 75% 30.14 in 10.0 mi WNW 16.1 mph 25.3 mph N/A   Overcast
1:35 PM 34.3 °F 24.2 °F 27.3 °F 76% 30.14 in 10.0 mi NW 16.1 mph 19.6 mph N/A   Overcast
1:55 PM 34.5 °F 25.7 °F 27.5 °F 76% 30.15 in 10.0 mi NW 12.7 mph - N/A   Overcast
2:15 PM 34.7 °F 25.5 °F 28.0 °F 77% 30.15 in 10.0 mi NW 13.8 mph - N/A   Overcast
2:35 PM 34.7 °F 25.9 °F 28.0 °F 77% 30.16 in 10.0 mi NW 12.7 mph - N/A   Overcast
2:55 PM 34.3 °F 25.5 °F 28.0 °F 78% 30.17 in 10.0 mi NW 12.7 mph - N/A   Overcast
3:15 PM 34.3 °F 25.5 °F 28.9 °F 81% 30.18 in 10.0 mi NW 12.7 mph 18.4 mph N/A   Overcast
3:35 PM 34.5 °F 25.7 °F 28.0 °F 77% 30.18 in 10.0 mi NW 12.7 mph - N/A   Overcast
3:55 PM 34.5 °F 26.2 °F 27.7 °F 76% 30.19 in 10.0 mi WNW 11.5 mph 18.4 mph N/A   Overcast
4:15 PM 34.2 °F 23.3 °F 23.5 °F 65% 30.20 in 10.0 mi NW 18.4 mph 23.0 mph N/A   Overcast
4:35 PM 33.8 °F 22.8 °F 23.5 °F 66% 30.20 in 10.0 mi NW 18.4 mph 25.3 mph N/A   Overcast
4:55 PM 33.1 °F 23.4 °F 22.6 °F 66% 30.21 in 10.0 mi NW 13.8 mph 23.0 mph N/A   Overcast
5:15 PM 32.0 °F 20.1 °F 20.8 °F 63% 30.21 in 10.0 mi NW 19.6 mph - N/A   Scattered Clouds
5:35 PM 31.5 °F 21.8 °F 20.1 °F 63% 30.21 in 10.0 mi NW 12.7 mph 23.0 mph N/A   Scattered Clouds
5:55 PM 30.7 °F 22.0 °F 20.3 °F 65% 30.22 in 10.0 mi NW 10.4 mph - N/A   Scattered Clouds
6:15 PM 28.9 °F 19.2 °F 20.5 °F 71% 30.23 in 10.0 mi WNW 11.5 mph - N/A   Clear
6:35 PM 28.2 °F 18.9 °F 19.9 °F 71% 30.23 in 10.0 mi WNW 10.4 mph - N/A   Clear
6:55 PM 26.6 °F 17.5 °F 18.9 °F 73% 30.24 in 10.0 mi West 9.2 mph - N/A   Clear
7:15 PM 24.1 °F 13.7 °F 17.1 °F 75% 30.24 in 10.0 mi West 10.4 mph - N/A   Clear
7:35 PM 23.9 °F 11.7 °F 17.4 °F 76% 30.24 in 10.0 mi WNW 13.8 mph - N/A   Clear
7:55 PM 23.5 °F 11.8 °F 16.2 °F 73% 30.26 in 10.0 mi West 12.7 mph - N/A   Clear
8:15 PM 22.5 °F 10.5 °F 15.8 °F 76% 30.26 in 10.0 mi West 12.7 mph - N/A   Clear
8:35 PM 20.8 °F 8.4 °F 14.9 °F 78% 30.26 in 10.0 mi West 12.7 mph - N/A   Scattered Clouds
8:55 PM 21.4 °F 9.7 °F 15.6 °F 78% 30.26 in 10.0 mi West 11.5 mph - N/A   Mostly Cloudy
9:15 PM 19.4 °F 8.6 °F 14.0 °F 80% 30.25 in 10.0 mi West 9.2 mph - N/A   Mostly Cloudy
9:35 PM 17.4 °F 7.1 °F 12.4 °F 81% 30.25 in 10.0 mi West 8.1 mph - N/A   Clear
9:55 PM 16.5 °F 5.1 °F 11.7 °F 81% 30.24 in 10.0 mi West 9.2 mph - N/A   Clear
10:15 PM 16.9 °F 8.5 °F 12.6 °F 83% 30.24 in 10.0 mi WSW 5.8 mph - N/A   Clear
10:35 PM 14.5 °F 2.7 °F 10.0 °F 82% 30.23 in 10.0 mi SW 9.2 mph - N/A   Clear
10:55 PM 15.6 °F 5.9 °F 10.8 °F 81% 30.23 in 10.0 mi WSW 6.9 mph - N/A   Clear
11:15 PM 14.5 °F 5.7 °F 9.5 °F 80% 30.23 in 10.0 mi SW 5.8 mph - N/A   Clear
11:35 PM 12.9 °F 6.9 °F 8.8 °F 84% 30.22 in 10.0 mi SW 3.5 mph - N/A   Scattered Clouds
11:55 PM 13.5 °F 1.3 °F 8.6 °F 81% 30.21 in 10.0 mi WSW 9.2 mph - N/A   Mostly Cloudy